User: anonymous   Login
Location: Unspecified
(0.0000°N, 0.0000°E)
Time: 08:06:05
(UTC+00:00)
Language:

OV2-5 - Orbit

View from above orbital plane
View from above orbital plane
View from above satellite
View from above satellite

Ground track
Ground track

The orbit data is extracted from the following two-line orbital elements,

1  3428U 68081A   18262.77516737 +.00000037 +00000-0 +00000-0 0  9992
2  3428 004.9994 309.4612 0089026 334.8668 190.1387 01.01556927092345
Epoch (UTC): 19 September 2018 18:36:14
Eccentricity: 0.0089026
inclination: 4.9994°
perigee height: 35057 km
apogee height: 35802 km
right ascension of ascending node: 309.4612°
argument of perigee: 334.8668°
revolutions per day: 1.01556927
mean anomaly at epoch: 190.1387°
orbit number at epoch: 9234

The dashed part of the orbit path shows where the satellite is in the earth's shadow,  

DLR